| time (UTC) | temp C | wind direction | speed KPH | gust KPH | rain 1hr cm | rain 24hr cm | rain mn cm | humidity % | barometer mb |
| 20260904225124 | 14 | 300 | 14.5 | 32.2 | 0.00 | 0.33 | 0.00 | 58 | 1011.1 |
| 20260904224224 | 14 | 293 | 16.1 | 32.2 | 0.00 | 0.33 | 0.00 | 57 | 1011.2 |
| 20260904223324 | 14 | 295 | 16.1 | 27.4 | 0.00 | 0.33 | 0.00 | 58 | 1011.1 |
| 20260904222424 | 14 | 291 | 14.5 | 30.6 | 0.00 | 0.33 | 0.00 | 59 | 1011.1 |
| 20260904221524 | 13 | 296 | 12.9 | 24.1 | 0.00 | 0.33 | 0.00 | 59 | 1011.0 |
| 20260904220624 | 13 | 292 | 14.5 | 32.2 | 0.00 | 0.33 | 0.00 | 59 | 1010.8 |
| 20260904215724 | 13 | 291 | 14.5 | 27.4 | 0.00 | 0.33 | 0.00 | 59 | 1010.7 |
| 20260904214824 | 13 | 291 | 14.5 | 27.4 | 0.00 | 0.33 | 0.00 | 60 | 1010.7 |
| 20260904213025 | 13 | 296 | 12.9 | 25.7 | 0.00 | 0.33 | 0.00 | 59 | 1010.6 |
| 20260904212124 | 13 | 290 | 16.1 | 27.4 | 0.00 | 0.33 | 0.00 | 59 | 1010.5 |
| 20260904211225 | 13 | 286 | 14.5 | 24.1 | 0.00 | 0.33 | 0.00 | 58 | 1010.5 |
| 20260904210324 | 13 | 288 | 14.5 | 24.1 | 0.00 | 0.33 | 0.00 | 58 | 1010.5 |
| 20260904204524 | 13 | 283 | 16.1 | 30.6 | 0.00 | 0.33 | 0.00 | 58 | 1010.2 |
| 20260904203624 | 13 | 279 | 19.3 | 41.8 | 0.00 | 0.33 | 0.00 | 59 | 1010.1 |
| 20260904202724 | 13 | 279 | 17.7 | 30.6 | 0.00 | 0.33 | 0.00 | 59 | 1010.0 |
| 20260904201824 | 14 | 278 | 20.9 | 37.0 | 0.00 | 0.33 | 0.00 | 60 | 1009.9 |
| 20260904200925 | 14 | 278 | 19.3 | 41.8 | 0.00 | 0.33 | 0.00 | 60 | 1009.7 |
| 20260904200024 | 14 | 277 | 19.3 | 37.0 | 0.00 | 0.33 | 0.00 | 61 | 1009.7 |
| 20260904195124 | 14 | 283 | 19.3 | 35.4 | 0.00 | 0.33 | 0.00 | 61 | 1009.5 |
| 20260904194224 | 14 | 288 | 17.7 | 32.2 | 0.00 | 0.33 | 0.00 | 61 | 1009.5 |
| 20260904193326 | 14 | 297 | 17.7 | 32.2 | 0.00 | 0.33 | 0.00 | 61 | 1009.5 |
| 20260904192424 | 15 | 305 | 16.1 | 30.6 | 0.00 | 0.33 | 0.00 | 62 | 1009.2 |
| 20260904191524 | 15 | 309 | 9.7 | 20.9 | 0.00 | 0.33 | 0.00 | 62 | 1009.0 |
| 20260904190624 | 15 | 325 | 9.7 | 17.7 | 0.00 | 0.33 | 0.00 | 62 | 1009.0 |
| 20260904185724 | 15 | 330 | 8.0 | 19.3 | 0.00 | 0.33 | 0.00 | 61 | 1008.8 |
| 20260904183024 | 15 | 322 | 9.7 | 17.7 | 0.00 | 0.33 | 0.00 | 61 | 1008.6 |
| 20260904182123 | 15 | 315 | 8.0 | 16.1 | 0.00 | 0.33 | 0.00 | 61 | 1008.6 |
| 20260904181223 | 15 | 318 | 8.0 | 17.7 | 0.00 | 0.33 | 0.00 | 61 | 1008.5 |
| 20260904180324 | 15 | 320 | 8.0 | 20.9 | 0.00 | 0.33 | 0.00 | 61 | 1008.5 |
| 20260904175423 | 15 | 322 | 9.7 | 17.7 | 0.00 | 0.33 | 0.00 | 61 | 1008.3 |
| 20260904174523 | 15 | 325 | 8.0 | 17.7 | 0.00 | 0.33 | 0.00 | 61 | 1008.5 |
| 20260904173623 | 15 | 331 | 9.7 | 17.7 | 0.00 | 0.33 | 0.00 | 60 | 1008.5 |
| 20260904172723 | 15 | 329 | 6.4 | 17.7 | 0.00 | 0.33 | 0.00 | 60 | 1008.4 |
| 20260904171823 | 15 | 336 | 6.4 | 12.9 | 0.00 | 0.33 | 0.00 | 60 | 1008.4 |
| 20260904170023 | 15 | 346 | 4.8 | 14.5 | 0.00 | 0.33 | 0.00 | 59 | 1008.3 |
| 20260904165124 | 15 | 339 | 4.8 | 8.0 | 0.00 | 0.33 | 0.00 | 59 | 1008.5 |
| 20260904164223 | 15 | 347 | 6.4 | 14.5 | 0.00 | 0.33 | 0.00 | 59 | 1008.7 |
| 20260904161523 | 16 | 11 | 6.4 | 14.5 | 0.00 | 0.33 | 0.00 | 58 | 1008.6 |
| 20260904155723 | 16 | 358 | 3.2 | 8.0 | 0.00 | 0.33 | 0.00 | 58 | 1008.5 |
| 20260904154823 | 16 | 335 | 3.2 | 6.4 | 0.00 | 0.33 | 0.00 | 58 | 1008.3 |
| 20260904153923 | 16 | 333 | 4.8 | 9.7 | 0.00 | 0.33 | 0.00 | 57 | 1008.3 |
| 20260904153023 | 16 | 342 | 4.8 | 12.9 | 0.00 | 0.33 | 0.00 | 57 | 1008.1 |
| 20260904152123 | 16 | 339 | 4.8 | 9.7 | 0.00 | 0.33 | 0.00 | 57 | 1008.5 |
| 20260904150323 | 16 | 323 | 4.8 | 12.9 | 0.00 | 0.33 | 0.00 | 57 | 1008.6 |
| 20260904145424 | 16 | 319 | 6.4 | 12.9 | 0.00 | 0.33 | 0.00 | 57 | 1008.3 |
| 20260904144523 | 16 | 318 | 8.0 | 20.9 | 0.00 | 0.33 | 0.00 | 57 | 1008.3 |
| 20260904142723 | 16 | 14 | 9.7 | 17.7 | 0.00 | 0.33 | 0.33 | 57 | 1007.9 |
| 20260904141823 | 16 | 11 | 8.0 | 16.1 | 0.00 | 0.33 | 0.33 | 57 | 1007.9 |
| 20260904140923 | 16 | 5 | 9.7 | 20.9 | 0.00 | 0.33 | 0.33 | 57 | 1008.2 |
| 20260904140023 | 16 | 2 | 8.0 | 17.7 | 0.00 | 0.33 | 0.33 | 57 | 1008.3 |
| 20260904135123 | 16 | 357 | 8.0 | 17.7 | 0.00 | 0.33 | 0.33 | 57 | 1008.3 |
| 20260904134223 | 16 | 343 | 6.4 | 16.1 | 0.00 | 0.33 | 0.33 | 57 | 1008.3 |
| 20260904133323 | 16 | 347 | 8.0 | 16.1 | 0.00 | 0.33 | 0.33 | 57 | 1008.4 |
| 20260904131523 | 16 | 3 | 9.7 | 19.3 | 0.00 | 0.33 | 0.33 | 57 | 1008.2 |
| 20260904130623 | 16 | 5 | 11.3 | 20.9 | 0.00 | 0.33 | 0.33 | 56 | 1008.1 |
| 20260904125724 | 16 | 13 | 9.7 | 16.1 | 0.00 | 0.33 | 0.33 | 56 | 1008.0 |
| 20260904124823 | 17 | 24 | 11.3 | 20.9 | 0.00 | 0.33 | 0.33 | 56 | 1007.9 |
| 20260904123023 | 17 | 15 | 11.3 | 19.3 | 0.00 | 0.33 | 0.33 | 56 | 1008.3 |
| 20260904122123 | 17 | 13 | 12.9 | 24.1 | 0.00 | 0.33 | 0.33 | 55 | 1008.6 |
| 20260904121223 | 17 | 13 | 12.9 | 24.1 | 0.00 | 0.33 | 0.33 | 55 | 1008.5 |
| 20260904120323 | 17 | 19 | 12.9 | 25.7 | 0.00 | 0.33 | 0.33 | 55 | 1008.4 |
| 20260904115423 | 17 | 11 | 11.3 | 25.7 | 0.00 | 0.33 | 0.33 | 55 | 1008.7 |
| 20260904114523 | 17 | 5 | 12.9 | 24.1 | 0.00 | 0.33 | 0.33 | 55 | 1008.6 |
| 20260904113625 | 17 | 357 | 12.9 | 25.7 | 0.00 | 0.33 | 0.33 | 55 | 1008.9 |
| 20260904111823 | 17 | 357 | 12.9 | 22.5 | 0.00 | 0.33 | 0.33 | 55 | 1008.8 |
| 20260904110923 | 17 | 359 | 12.9 | 24.1 | 0.00 | 0.33 | 0.33 | 55 | 1009.0 |
| 20260904100622 | 18 | 7 | 12.9 | 24.1 | 0.00 | 0.33 | 0.33 | 56 | 1008.9 |
| 20260904095722 | 18 | 3 | 11.3 | 19.3 | 0.00 | 0.33 | 0.33 | 57 | 1008.9 |
| 20260904094822 | 18 | 5 | 9.7 | 22.5 | 0.00 | 0.33 | 0.33 | 57 | 1008.8 |
| 20260904093922 | 18 | 19 | 11.3 | 24.1 | 0.00 | 0.33 | 0.33 | 58 | 1008.7 |
| 20260904093025 | 18 | 16 | 8.0 | 17.7 | 0.00 | 0.33 | 0.33 | 58 | 1008.5 |
| 20260904092122 | 18 | 20 | 9.7 | 17.7 | 0.00 | 0.33 | 0.33 | 58 | 1008.4 |
| 20260904091222 | 18 | 20 | 12.9 | 24.1 | 0.00 | 0.33 | 0.33 | 58 | 1008.3 |
| 20260904085422 | 18 | 30 | 11.3 | 19.3 | 0.00 | 0.33 | 0.33 | 58 | 1008.4 |
| 20260904084522 | 18 | 38 | 8.0 | 16.1 | 0.00 | 0.33 | 0.33 | 58 | 1008.5 |
| 20260904082722 | 18 | 73 | 6.4 | 12.9 | 0.00 | 0.33 | 0.33 | 59 | 1008.5 |
| 20260904081822 | 18 | 76 | 4.8 | 11.3 | 0.00 | 0.33 | 0.33 | 58 | 1008.4 |
| 20260904080922 | 18 | 79 | 6.4 | 12.9 | 0.00 | 0.33 | 0.33 | 58 | 1008.5 |
| 20260904080022 | 18 | 72 | 6.4 | 14.5 | 0.00 | 0.33 | 0.33 | 57 | 1008.5 |
| 20260904075122 | 19 | 49 | 8.0 | 14.5 | 0.00 | 0.33 | 0.33 | 57 | 1008.4 |
| 20260904074222 | 19 | 46 | 8.0 | 14.5 | 0.00 | 0.33 | 0.33 | 57 | 1008.6 |
| 20260904071522 | 19 | 45 | 9.7 | 19.3 | 0.00 | 0.33 | 0.33 | 56 | 1008.8 |
| 20260904070622 | 20 | 49 | 8.0 | 17.7 | 0.00 | 0.33 | 0.33 | 56 | 1008.8 |
| 20260904065722 | 20 | 40 | 11.3 | 20.9 | 0.00 | 0.33 | 0.33 | 55 | 1009.0 |
| 20260904064822 | 20 | 23 | 8.0 | 19.3 | 0.00 | 0.33 | 0.33 | 56 | 1009.0 |
| 20260904063922 | 19 | 2 | 9.7 | 24.1 | 0.00 | 0.33 | 0.33 | 55 | 1009.0 |
| 20260904063022 | 20 | 8 | 9.7 | 24.1 | 0.00 | 0.33 | 0.33 | 53 | 1009.1 |
| 20260904060322 | 20 | 34 | 12.9 | 22.5 | 0.00 | 0.36 | 0.33 | 52 | 1009.3 |
| 20260904055422 | 20 | 29 | 14.5 | 24.1 | 0.00 | 0.36 | 0.33 | 52 | 1009.4 |
| 20260904054522 | 20 | 36 | 14.5 | 25.7 | 0.00 | 0.36 | 0.33 | 52 | 1009.3 |
| 20260904052722 | 20 | 51 | 11.3 | 20.9 | 0.00 | 0.36 | 0.33 | 53 | 1009.5 |
| 20260904051822 | 19 | 32 | 9.7 | 19.3 | 0.00 | 0.36 | 0.33 | 54 | 1009.8 |
| 20260904050922 | 18 | 39 | 11.3 | 20.9 | 0.00 | 0.36 | 0.33 | 54 | 1010.1 |
| 20260904045122 | 18 | 54 | 8.0 | 19.3 | 0.00 | 0.36 | 0.33 | 56 | 1010.2 |
| 20260904044222 | 17 | 59 | 8.0 | 16.1 | 0.00 | 0.36 | 0.33 | 57 | 1010.3 |
| 20260904043322 | 17 | 61 | 6.4 | 14.5 | 0.00 | 0.36 | 0.33 | 57 | 1010.5 |
| 20260904042422 | 17 | 71 | 6.4 | 17.7 | 0.00 | 0.36 | 0.33 | 57 | 1010.6 |
| 20260904041522 | 17 | 57 | 6.4 | 17.7 | 0.00 | 0.36 | 0.33 | 56 | 1010.6 |
| 20260904040622 | 17 | 49 | 8.0 | 16.1 | 0.00 | 0.36 | 0.33 | 56 | 1010.9 |
| 20260904035722 | 17 | 39 | 12.9 | 20.9 | 0.00 | 0.36 | 0.33 | 56 | 1011.1 |
| 20260904034822 | 17 | 32 | 12.9 | 22.5 | 0.00 | 0.36 | 0.33 | 55 | 1011.3 |
| 20260904033022 | 17 | 32 | 12.9 | 25.7 | 0.03 | 0.36 | 0.33 | 56 | 1011.6 |
| 20260904032121 | 18 | 35 | 11.3 | 22.5 | 0.10 | 0.36 | 0.33 | 57 | 1011.9 |
| 20260904031221 | 17 | 42 | 12.9 | 24.1 | 0.15 | 0.36 | 0.33 | 59 | 1012.1 |
| 20260904030322 | 16 | 66 | 8.0 | 16.1 | 0.20 | 0.36 | 0.33 | 65 | 1012.4 |
| 20260904023621 | 13 | 82 | 9.7 | 20.9 | 0.30 | 0.33 | 0.33 | 64 | 1013.1 |
| 20260904022722 | 13 | 50 | 12.9 | 22.5 | 0.28 | 0.33 | 0.30 | 64 | 1013.7 |
| 20260904021822 | 13 | 65 | 9.7 | 22.5 | 0.23 | 0.23 | 0.23 | 64 | 1014.2 |
| 20260904020021 | 14 | 25 | 9.7 | 19.3 | 0.13 | 0.15 | 0.13 | 64 | 1015.5 |
| 20260904015121 | 13 | 44 | 9.7 | 20.9 | 0.10 | 0.13 | 0.10 | 62 | 1014.1 |
| 20260904014221 | 14 | 37 | 14.5 | 24.1 | 0.05 | 0.08 | 0.05 | 61 | 1014.6 |